Time,TemperatureF,DewpointF,PressureIn,WindDirection,WindDirectionDegrees,WindSpeedMPH,WindSpeedGustMPH,Humidity,HourlyPrecipIn,Conditions,Clouds,dailyrainin,SoftwareType,DateUTC
2013-08-22 00:02:00,74.0,46.0,29.87,SW,227,0.0,0.0,37,0.00,,,0.00,,2013-08-22 07:02:00,
2013-08-22 00:21:00,73.0,49.0,29.88,SW,227,0.0,1.0,42,0.00,,,0.00,,2013-08-22 07:21:00,
2013-08-22 00:31:00,73.0,49.0,29.88,SW,227,0.0,1.0,42,0.00,,,0.00,,2013-08-22 07:31:00,
2013-08-22 00:52:00,71.0,47.0,29.87,SW,227,0.0,2.0,43,0.00,,,0.00,,2013-08-22 07:52:00,
2013-08-22 01:03:00,71.0,47.0,29.87,SW,227,0.0,2.0,43,0.00,,,0.00,,2013-08-22 08:03:00,
2013-08-22 01:22:00,70.0,46.0,29.86,SW,227,0.0,0.0,42,0.00,,,0.00,,2013-08-22 08:22:00,
2013-08-22 01:33:00,70.0,46.0,29.86,SW,227,0.0,0.0,42,0.00,,,0.00,,2013-08-22 08:33:00,
2013-08-22 01:53:00,70.0,49.0,29.87,SW,227,1.0,3.0,48,0.00,,,0.00,,2013-08-22 08:53:00,
2013-08-22 02:01:00,70.0,49.0,29.87,SW,227,1.0,3.0,48,0.00,,,0.00,,2013-08-22 09:01:00,
2013-08-22 02:22:00,69.0,51.0,29.87,SW,227,0.0,1.0,53,0.00,,,0.00,,2013-08-22 09:22:00,
2013-08-22 02:33:00,69.0,51.0,29.87,SW,227,0.0,1.0,53,0.00,,,0.00,,2013-08-22 09:33:00,
2013-08-22 02:54:00,68.0,53.0,29.87,SW,227,0.0,0.0,58,0.00,,,0.00,,2013-08-22 09:54:00,
2013-08-22 03:03:00,68.0,53.0,29.87,SW,227,0.0,0.0,58,0.00,,,0.00,,2013-08-22 10:03:00,
2013-08-22 03:22:00,67.0,53.0,29.87,SW,227,0.0,0.0,61,0.00,,,0.00,,2013-08-22 10:22:00,
2013-08-22 03:32:00,67.0,53.0,29.87,SW,227,0.0,0.0,61,0.00,,,0.00,,2013-08-22 10:32:00,
2013-08-22 03:33:00,67.0,53.0,29.87,SW,227,0.0,0.0,60,0.00,,,0.00,,2013-08-22 10:33:00,
2013-08-22 05:32:00,65.0,51.0,29.85,SW,227,0.0,0.0,61,0.00,,,0.00,,2013-08-22 12:32:00,
2013-08-22 05:52:00,65.0,52.0,29.85,SW,227,0.0,0.0,62,0.00,,,0.00,,2013-08-22 12:52:00,
2013-08-22 06:12:00,65.0,52.0,29.85,SW,227,0.0,0.0,62,0.00,,,0.00,,2013-08-22 13:12:00,
2013-08-22 06:22:00,65.0,52.0,29.85,SW,227,0.0,1.0,63,0.00,,,0.00,,2013-08-22 13:22:00,
2013-08-22 06:31:00,65.0,52.0,29.85,SW,227,0.0,1.0,63,0.00,,,0.00,,2013-08-22 13:31:00,
2013-08-22 06:52:00,64.0,51.0,29.86,SW,227,1.0,1.0,63,0.00,,,0.00,,2013-08-22 13:52:00,
2013-08-22 07:01:00,64.0,51.0,29.86,SW,227,1.0,1.0,63,0.00,,,0.00,,2013-08-22 14:01:00,
2013-08-22 07:21:00,64.0,51.0,29.85,SW,227,0.0,0.0,62,0.00,,,0.00,,2013-08-22 14:21:00,
2013-08-22 07:33:00,64.0,51.0,29.85,SW,227,0.0,0.0,62,0.00,,,0.00,,2013-08-22 14:33:00,
2013-08-22 07:52:00,65.0,51.0,29.86,SW,227,0.0,1.0,60,0.00,,,0.00,,2013-08-22 14:52:00,
2013-08-22 08:01:00,65.0,51.0,29.86,SW,227,0.0,1.0,60,0.00,,,0.00,,2013-08-22 15:01:00,
2013-08-22 08:22:00,69.0,52.0,29.85,SW,227,0.0,0.0,54,0.00,,,0.00,,2013-08-22 15:22:00,
2013-08-22 08:33:00,69.0,52.0,29.85,SW,227,0.0,0.0,54,0.00,,,0.00,,2013-08-22 15:33:00,
2013-08-22 08:54:00,76.0,51.0,29.86,SW,227,0.0,1.0,42,0.00,,,0.00,,2013-08-22 15:54:00,
2013-08-22 09:05:00,76.0,51.0,29.86,SW,227,0.0,1.0,42,0.00,,,0.00,,2013-08-22 16:05:00,
2013-08-22 09:24:00,78.0,47.0,29.85,SW,227,0.0,2.0,34,0.00,,,0.00,,2013-08-22 16:24:00,
2013-08-22 09:34:00,78.0,47.0,29.85,SW,227,0.0,2.0,34,0.00,,,0.00,,2013-08-22 16:34:00,
2013-08-22 09:54:00,84.0,46.0,29.86,SW,227,0.0,1.0,27,0.00,,,0.00,,2013-08-22 16:54:00,
2013-08-22 10:02:00,84.0,46.0,29.86,SW,227,0.0,1.0,27,0.00,,,0.00,,2013-08-22 17:02:00,
2013-08-22 10:53:00,91.0,47.0,29.86,ENE,73,1.0,3.0,22,0.00,,,0.00,,2013-08-22 17:53:00,
2013-08-22 11:02:00,91.0,47.0,29.86,ENE,73,1.0,3.0,22,0.00,,,0.00,,2013-08-22 18:02:00,
2013-08-22 11:52:00,96.0,37.0,29.85,NW,323,1.0,2.0,13,0.00,,,0.00,,2013-08-22 18:52:00,
2013-08-22 12:02:00,96.0,37.0,29.85,NW,323,1.0,2.0,13,0.00,,,0.00,,2013-08-22 19:02:00,
2013-08-22 12:22:00,96.0,37.0,29.84,NW,322,0.0,3.0,13,0.00,,,0.00,,2013-08-22 19:22:00,
2013-08-22 12:32:00,96.0,37.0,29.84,NW,322,0.0,3.0,13,0.00,,,0.00,,2013-08-22 19:32:00,
2013-08-22 12:53:00,100.0,40.0,29.84,East,86,0.0,3.0,13,0.00,,,0.00,,2013-08-22 19:53:00,
2013-08-22 13:02:00,100.0,40.0,29.84,East,86,0.0,3.0,13,0.00,,,0.00,,2013-08-22 20:02:00,
2013-08-22 13:11:00,100.0,40.0,29.84,East,86,0.0,3.0,13,0.00,,,0.00,,2013-08-22 20:11:00,
2013-08-22 13:52:00,100.0,36.0,29.83,NW,315,3.0,5.0,11,0.00,,,0.00,,2013-08-22 20:52:00,
2013-08-22 14:02:00,100.0,36.0,29.83,NW,315,3.0,5.0,11,0.00,,,0.00,,2013-08-22 21:02:00,
2013-08-22 15:53:00,101.0,26.0,29.78,SW,230,3.0,9.0,7,0.00,,,0.00,,2013-08-22 22:53:00,
2013-08-22 16:02:00,101.0,26.0,29.78,SW,230,3.0,9.0,7,0.00,,,0.00,,2013-08-22 23:02:00,
2013-08-22 16:22:00,102.0,26.0,29.77,SSE,161,2.0,5.0,7,0.00,,,0.00,,2013-08-22 23:22:00,
2013-08-22 16:33:00,102.0,26.0,29.77,SSE,161,2.0,5.0,7,0.00,,,0.00,,2013-08-22 23:33:00,
2013-08-22 16:52:00,99.0,35.0,29.77,SW,229,5.0,8.0,11,0.00,,,0.00,,2013-08-22 23:52:00,
2013-08-22 17:02:00,99.0,35.0,29.77,SW,229,5.0,8.0,11,0.00,,,0.00,,2013-08-23 00:02:00,
2013-08-22 17:23:00,99.0,41.0,29.76,South,186,1.0,8.0,14,0.00,,,0.00,,2013-08-23 00:23:00,
2013-08-22 17:33:00,99.0,41.0,29.76,South,186,1.0,8.0,14,0.00,,,0.00,,2013-08-23 00:33:00,
2013-08-22 17:42:00,99.0,41.0,29.76,South,186,1.0,8.0,14,0.00,,,0.00,,2013-08-23 00:42:00,
2013-08-22 17:52:00,96.0,41.0,29.76,SW,234,4.0,7.0,15,0.00,,,0.00,,2013-08-23 00:52:00,
2013-08-22 18:01:00,96.0,41.0,29.76,SW,234,4.0,7.0,15,0.00,,,0.00,,2013-08-23 01:01:00,
2013-08-22 18:11:00,96.0,41.0,29.76,SW,234,4.0,7.0,15,0.00,,,0.00,,2013-08-23 01:11:00,
2013-08-22 18:21:00,94.0,38.0,29.75,SSW,203,1.0,8.0,14,0.00,,,0.00,,2013-08-23 01:21:00,
2013-08-22 18:33:00,94.0,38.0,29.75,SSW,203,1.0,8.0,14,0.00,,,0.00,,2013-08-23 01:33:00,
2013-08-22 18:52:00,92.0,39.0,29.75,SSW,206,2.0,5.0,16,0.00,,,0.00,,2013-08-23 01:52:00,
2013-08-22 19:02:00,92.0,39.0,29.75,SSW,206,2.0,5.0,16,0.00,,,0.00,,2013-08-23 02:02:00,
2013-08-22 19:22:00,88.0,38.0,29.76,SSW,205,3.0,8.0,17,0.00,,,0.00,,2013-08-23 02:22:00,
2013-08-22 19:32:00,88.0,38.0,29.76,SSW,205,3.0,8.0,17,0.00,,,0.00,,2013-08-23 02:32:00,
2013-08-22 19:52:00,85.0,39.0,29.77,SSW,206,3.0,11.0,20,0.00,,,0.00,,2013-08-23 02:52:00,
2013-08-22 20:02:00,85.0,39.0,29.77,SSW,206,3.0,11.0,20,0.00,,,0.00,,2013-08-23 03:02:00,
2013-08-22 20:11:00,85.0,39.0,29.77,SSW,206,3.0,11.0,20,0.00,,,0.00,,2013-08-23 03:11:00,
2013-08-22 20:22:00,81.0,41.0,29.79,SSW,212,5.0,10.0,24,0.00,,,0.00,,2013-08-23 03:22:00,
2013-08-22 20:34:00,81.0,41.0,29.79,SSW,212,5.0,10.0,24,0.00,,,0.00,,2013-08-23 03:34:00,
2013-08-22 20:55:00,79.0,43.0,29.79,SE,141,6.0,11.0,28,0.00,,,0.00,,2013-08-23 03:55:00,
2013-08-22 21:04:00,79.0,43.0,29.79,SE,141,6.0,11.0,28,0.00,,,0.00,,2013-08-23 04:04:00,
2013-08-22 21:24:00,77.0,41.0,29.82,SSW,210,4.0,10.0,28,0.00,,,0.00,,2013-08-23 04:24:00,
2013-08-22 21:34:00,77.0,41.0,29.82,SSW,210,4.0,10.0,28,0.00,,,0.00,,2013-08-23 04:34:00,
2013-08-22 21:43:00,77.0,41.0,29.82,SSW,210,4.0,10.0,28,0.00,,,0.00,,2013-08-23 04:43:00,
2013-08-22 21:54:00,77.0,42.0,29.81,SSW,210,1.0,6.0,29,0.00,,,0.00,,2013-08-23 04:54:00,
2013-08-22 22:03:00,77.0,42.0,29.81,SSW,210,1.0,6.0,29,0.00,,,0.00,,2013-08-23 05:03:00,
2013-08-22 22:22:00,75.0,45.0,29.82,SSW,212,1.0,2.0,34,0.00,,,0.00,,2013-08-23 05:22:00,
2013-08-22 22:34:00,75.0,45.0,29.82,SSW,212,1.0,2.0,34,0.00,,,0.00,,2013-08-23 05:34:00,
2013-08-22 22:52:00,74.0,45.0,29.82,SSW,212,1.0,3.0,36,0.00,,,0.00,,2013-08-23 05:52:00,
2013-08-22 23:01:00,74.0,45.0,29.82,SSW,212,1.0,3.0,36,0.00,,,0.00,,2013-08-23 06:01:00,
2013-08-22 23:21:00,73.0,46.0,29.82,SSW,212,0.0,2.0,38,0.00,,,0.00,,2013-08-23 06:21:00,
2013-08-22 23:32:00,73.0,46.0,29.82,SSW,212,0.0,2.0,38,0.00,,,0.00,,2013-08-23 06:32:00,
2013-08-22 23:42:00,73.0,46.0,29.82,SSW,212,0.0,2.0,38,0.00,,,0.00,,2013-08-23 06:42:00,
2013-08-22 23:52:00,72.0,46.0,29.83,SSW,212,0.0,0.0,39,0.00,,,0.00,,2013-08-23 06:52:00,